ORBCOMM FM04 [+]

Last updated on July 6, 2021, 3:36 p.m. UTC

1 25159U 98007C   21186.91894090  .00000066  00000-0  75908-4 0  9999
2 25159 107.9946  67.7689 0044679 236.8310 122.8537 14.29988782217811
UTC
Height (km)
Latitude
Longitude
Inclination
Orbital Period
UTC large
Height (km)
Speed (km/s)
/
Latitude / Longitude
Inclination (degrees)
Orbital Period (minutes)
Azimuth
Elevation
Range (km)
Doppler Factor
iOS Compass Heading
iOS Angle